,,Stat5,,Stat1,,Stat2,,Stat3,,Stat4,,Wind1,,Wind1,
time,status,PA1M_AVG,status,PR1M_SUM,status,RH1M_AVG,status,SR1M_AVG,status,TA1M_AVG,status,W1dAve1m,status,W1sAve1m,
2002-03-01, 00:00:00,VALID,917.632,VALID,0,VALID,97.0285,VALID,0,VALID,21.391,VALID,164,VALID,0.0646484,
2002-03-01, 00:01:00,VALID,917.632,VALID,0,VALID,97.0323,VALID,0.0339617,VALID,21.381,VALID,126,VALID,0.221217,
2002-03-01, 00:02:00,VALID,917.625,VALID,0,VALID,96.9789,VALID,0,VALID,21.3683,VALID,55,VALID,0.325452,
2002-03-01, 00:03:00,VALID,917.629,VALID,0,VALID,96.9255,VALID,0,VALID,21.3457,VALID,53,VALID,0.351345,
2002-03-01, 00:04:00,VALID,917.631,VALID,0,VALID,96.8899,VALID,0,VALID,21.3298,VALID,53,VALID,0.368243,
2002-03-01, 00:05:00,VALID,917.63,VALID,0,VALID,96.8734,VALID,0,VALID,21.3104,VALID,53,VALID,0.390152,
2002-03-01, 00:06:00,VALID,917.64,VALID,0,VALID,96.8772,VALID,0.0169808,VALID,21.2881,VALID,53,VALID,0.41266,
2002-03-01, 00:07:00,VALID,917.638,VALID,0,VALID,96.8785,VALID,-0.0169808,VALID,21.269,VALID,53,VALID,0.51183,
2002-03-01, 00:08:00,VALID,917.644,VALID,0,VALID,96.8683,VALID,0,VALID,21.2431,VALID,44,VALID,0.575893,
2002-03-01, 00:09:00,VALID,917.648,VALID,0,VALID,96.8111,VALID,-0.0169808,VALID,21.2006,VALID,19,VALID,0.736637,
2002-03-01, 00:10:00,VALID,917.647,VALID,0,VALID,96.8746,VALID,-0.0169808,VALID,21.1944,VALID,13,VALID,0.56851,
2002-03-01, 00:11:00,VALID,917.633,VALID,0,VALID,97.0527,VALID,-0.0169808,VALID,21.1782,VALID,14,VALID,0.722862,
2002-03-01, 00:12:00,VALID,917.629,VALID,0,VALID,97.1658,VALID,0,VALID,21.185,VALID,1,VALID,0.64375,
2002-03-01, 00:13:00,VALID,917.628,VALID,0,VALID,97.293,VALID,0,VALID,21.1914,VALID,23,VALID,0.551192,
2002-03-01, 00:14:00,VALID,917.624,VALID,0,VALID,97.4049,VALID,0,VALID,21.2143,VALID,25,VALID,0.415264,
2002-03-01, 00:15:00,VALID,917.639,VALID,0,VALID,97.4367,VALID,0,VALID,21.214,VALID,23,VALID,0.574836,
2002-03-01, 00:16:00,VALID,917.642,VALID,0,VALID,97.4558,VALID,0,VALID,21.2103,VALID,22,VALID,0.721875,
2002-03-01, 00:17:00,VALID,917.653,VALID,0,VALID,97.499,VALID,0,VALID,21.214,VALID,21,VALID,0.675781,
2002-03-01, 00:18:00,VALID,917.665,VALID,0,VALID,97.5155,VALID,-0.0169808,VALID,21.1976,VALID,5,VALID,0.690584,
2002-03-01, 00:19:00,VALID,917.651,VALID,0,VALID,97.5473,VALID,0.0169808,VALID,21.2011,VALID,3,VALID,0.553248,
2002-03-01, 00:20:00,VALID,917.64,VALID,0,VALID,97.574,VALID,0,VALID,21.1882,VALID,3,VALID,0.359375,
2002-03-01, 00:21:00,VALID,917.628,VALID,0,VALID,97.602,VALID,0,VALID,21.1688,VALID,353,VALID,0.472039,
2002-03-01, 00:22:00,VALID,917.62,VALID,0,VALID,97.6389,VALID,0,VALID,21.1691,VALID,336,VALID,0.495192,
2002-03-01, 00:23:00,VALID,917.605,VALID,0,VALID,97.6236,VALID,0,VALID,21.1562,VALID,299,VALID,0.704359,
2002-03-01, 00:24:00,VALID,917.596,VALID,0,VALID,97.6605,VALID,-0.0169808,VALID,21.1362,VALID,335,VALID,0.469727,
2002-03-01, 00:25:00,VALID,917.588,VALID,0,VALID,97.7279,VALID,0,VALID,21.1591,VALID,9,VALID,0.491571,
2002-03-01, 00:26:00,VALID,917.565,VALID,0,VALID,97.7393,VALID,-0.0339617,VALID,21.1591,VALID,4,VALID,0.428454,
2002-03-01, 00:27:00,VALID,917.553,VALID,0,VALID,97.7597,VALID,-0.0169808,VALID,21.1551,VALID,9,VALID,0.637336,
2002-03-01, 00:28:00,VALID,917.545,VALID,0,VALID,97.7648,VALID,0,VALID,21.1621,VALID,7,VALID,0.558203,
2002-03-01, 00:29:00,VALID,917.551,VALID,0,VALID,97.7686,VALID,-0.0169808,VALID,21.1688,VALID,338,VALID,0.571752,
2002-03-01, 00:30:00,VALID,917.549,VALID,0,VALID,97.8055,VALID,-0.0169808,VALID,21.1753,VALID,329,VALID,0.242588,
2002-03-01, 00:31:00,VALID,917.55,VALID,0,VALID,97.8271,VALID,-0.0169808,VALID,21.1788,VALID,10,VALID,0.58676,
2002-03-01, 00:32:00,VALID,917.56,VALID,0,VALID,97.8525,VALID,0,VALID,21.1852,VALID,11,VALID,0.788086,
2002-03-01, 00:33:00,VALID,917.561,VALID,0,VALID,97.8449,VALID,-0.0169808,VALID,21.1987,VALID,349,VALID,0.266859,
2002-03-01, 00:34:00,VALID,917.573,VALID,0,VALID,97.8436,VALID,-0.0169808,VALID,21.2014,VALID,346,VALID,0.23602,
2002-03-01, 00:35:00,VALID,917.565,VALID,0,VALID,97.8589,VALID,-0.0169808,VALID,21.1976,VALID,9,VALID,0.323191,
2002-03-01, 00:36:00,VALID,917.564,VALID,0,VALID,97.8347,VALID,0,VALID,21.1844,VALID,355,VALID,0.27207,
2002-03-01, 00:37:00,VALID,917.556,VALID,0,VALID,97.8233,VALID,0,VALID,21.1815,VALID,350,VALID,0.190584,
2002-03-01, 00:38:00,VALID,917.542,VALID,0,VALID,97.8589,VALID,-0.0169808,VALID,21.1882,VALID,12,VALID,0.221955,
2002-03-01, 00:39:00,VALID,917.547,VALID,0,VALID,97.8067,VALID,-0.0339617,VALID,21.1823,VALID,49,VALID,0.431538,
2002-03-01, 00:40:00,VALID,917.541,VALID,0,VALID,97.7432,VALID,0.0169808,VALID,21.1562,VALID,74,VALID,0.541406,
2002-03-01, 00:41:00,VALID,917.525,VALID,0,VALID,97.7393,VALID,0,VALID,21.1335,VALID,75,VALID,0.52426,
2002-03-01, 00:42:00,VALID,917.516,VALID,0,VALID,97.7673,VALID,0,VALID,21.1176,VALID,60,VALID,0.55366,
2002-03-01, 00:43:00,VALID,917.498,VALID,0,VALID,97.8182,VALID,-0.0169808,VALID,21.1072,VALID,54,VALID,0.347245,
2002-03-01, 00:44:00,VALID,917.485,VALID,0,VALID,97.8385,VALID,0.0169808,VALID,21.101,VALID,54,VALID,0.265625,
2002-03-01, 00:45:00,VALID,917.468,VALID,0,VALID,97.8462,VALID,0,VALID,21.1012,VALID,54,VALID,0,
2002-03-01, 00:46:00,VALID,917.456,VALID,0,VALID,97.8779,VALID,0.0339617,VALID,21.1012,VALID,54,VALID,0,
2002-03-01, 00:47:00,VALID,917.44,VALID,0,VALID,97.8716,VALID,0,VALID,21.0913,VALID,54,VALID,0,
2002-03-01, 00:48:00,VALID,917.415,VALID,0,VALID,97.8525,VALID,0,VALID,21.0783,VALID,54,VALID,0,
2002-03-01, 00:49:00,VALID,917.411,VALID,0,VALID,97.8754,VALID,0.0169808,VALID,21.0654,VALID,54,VALID,0,
2002-03-01, 00:50:00,VALID,917.413,VALID,0,VALID,97.8868,VALID,0.0169808,VALID,21.0652,VALID,54,VALID,0,
2002-03-01, 00:51:00,VALID,917.397,VALID,0,VALID,97.8347,VALID,0,VALID,21.059,VALID,54,VALID,0.147821,
2002-03-01, 00:52:00,VALID,917.378,VALID,0,VALID,97.7902,VALID,0,VALID,21.0199,VALID,54,VALID,0.145508,
2002-03-01, 00:53:00,VALID,917.365,VALID,0,VALID,97.7877,VALID,0.0509425,VALID,21.0038,VALID,54,VALID,0.025699,
2002-03-01, 00:54:00,VALID,917.343,VALID,0,VALID,97.8118,VALID,-0.0169808,VALID,20.9881,VALID,89,VALID,0.351162,
2002-03-01, 00:55:00,VALID,917.335,VALID,0,VALID,97.8589,VALID,-0.0849042,VALID,20.9965,VALID,106,VALID,0.265008,
2002-03-01, 00:56:00,VALID,917.328,VALID,0,VALID,97.8093,VALID,-0.0849042,VALID,20.9827,VALID,98,VALID,0.216797,
2002-03-01, 00:57:00,VALID,917.331,VALID,0,VALID,97.7012,VALID,-0.0679233,VALID,20.9413,VALID,74,VALID,0.619243,
2002-03-01, 00:58:00,VALID,917.339,VALID,0,VALID,97.7076,VALID,-0.101885,VALID,20.8958,VALID,64,VALID,0.574836,
2002-03-01, 00:59:00,VALID,917.343,VALID,0,VALID,97.7546,VALID,-0.0679233,VALID,20.8726,VALID,49,VALID,0.530633,
2002-03-01, 01:00:00,VALID,917.348,VALID,0,VALID,97.8029,VALID,-0.0679233,VALID,20.8637,VALID,48,VALID,0.395354,
2002-03-01, 01:01:00,VALID,917.351,VALID,0,VALID,97.8716,VALID,-0.101885,VALID,20.8667,VALID,48,VALID,0.378289,
2002-03-01, 01:02:00,VALID,917.374,VALID,0,VALID,97.8284,VALID,-0.101885,VALID,20.8473,VALID,40,VALID,0.335938,
2002-03-01, 01:03:00,VALID,917.385,VALID,0,VALID,97.8131,VALID,-0.101885,VALID,20.8187,VALID,29,VALID,0.383635,
2002-03-01, 01:04:00,VALID,917.385,VALID,0,VALID,97.8576,VALID,-0.0679233,VALID,20.8123,VALID,29,VALID,0.429102,
2002-03-01, 01:05:00,VALID,917.371,VALID,0,VALID,97.9339,VALID,-0.0849042,VALID,20.8182,VALID,27,VALID,0.525493,
2002-03-01, 01:06:00,VALID,917.347,VALID,0,VALID,97.9263,VALID,-0.101885,VALID,20.8152,VALID,27,VALID,0.540296,
2002-03-01, 01:07:00,VALID,917.322,VALID,0,VALID,97.8754,VALID,-0.0849042,VALID,20.7827,VALID,27,VALID,0.696752,
2002-03-01, 01:08:00,VALID,917.29,VALID,0,VALID,97.8233,VALID,-0.0849042,VALID,20.7377,VALID,28,VALID,0.839258,
2002-03-01, 01:09:00,VALID,917.273,VALID,0,VALID,97.8563,VALID,-0.0679233,VALID,20.7016,VALID,33,VALID,0.86287,
2002-03-01, 01:10:00,VALID,917.263,VALID,0,VALID,97.9695,VALID,0,VALID,20.7009,VALID,29,VALID,0.786859,
2002-03-01, 01:11:00,VALID,917.259,VALID,0,VALID,98.0318,VALID,0,VALID,20.6971,VALID,29,VALID,0.681743,
2002-03-01, 01:12:00,VALID,917.26,VALID,0,VALID,98.0712,VALID,0.0509425,VALID,20.6971,VALID,36,VALID,0.474609,
2002-03-01, 01:13:00,VALID,917.255,VALID,0,VALID,98.1323,VALID,0.0509425,VALID,20.7167,VALID,36,VALID,0.627262,
2002-03-01, 01:14:00,VALID,917.243,VALID,0,VALID,98.1653,VALID,0.0339617,VALID,20.7299,VALID,21,VALID,0.357319,
2002-03-01, 01:15:00,VALID,917.221,VALID,0,VALID,98.2086,VALID,0,VALID,20.7329,VALID,20,VALID,0.143709,
2002-03-01, 01:16:00,VALID,917.176,VALID,0,VALID,98.2391,VALID,0.0339617,VALID,20.7456,VALID,52,VALID,0.208984,
2002-03-01, 01:17:00,VALID,917.151,VALID,0,VALID,98.2836,VALID,0,VALID,20.769,VALID,66,VALID,0.443873,
2002-03-01, 01:18:00,VALID,917.119,VALID,0,VALID,98.3294,VALID,0,VALID,20.8139,VALID,62,VALID,0.387019,
2002-03-01, 01:19:00,VALID,917.105,VALID,0,VALID,98.3383,VALID,0.0509425,VALID,20.8263,VALID,62,VALID,0.107113,
2002-03-01, 01:20:00,VALID,917.104,VALID,0,VALID,98.3294,VALID,0,VALID,20.8495,VALID,102,VALID,0.178125,
2002-03-01, 01:21:00,VALID,917.113,VALID,0,VALID,98.2836,VALID,0.0169808,VALID,20.8365,VALID,161,VALID,0.407278,
2002-03-01, 01:22:00,VALID,917.125,VALID,0,VALID,98.2315,VALID,0.0169808,VALID,20.8104,VALID,137,VALID,0.48088,
2002-03-01, 01:23:00,VALID,917.144,VALID,0,VALID,98.2111,VALID,0.0509425,VALID,20.7913,VALID,147,VALID,0.662007,
2002-03-01, 01:24:00,VALID,917.159,VALID,0,VALID,98.2137,VALID,0,VALID,20.769,VALID,134,VALID,0.359766,
2002-03-01, 01:25:00,VALID,917.167,VALID,0,VALID,98.2391,VALID,0,VALID,20.7426,VALID,115,VALID,0.581414,
2002-03-01, 01:26:00,VALID,917.174,VALID,0,VALID,98.276,VALID,0.0339617,VALID,20.7426,VALID,98,VALID,0.522236,
2002-03-01, 01:27:00,VALID,917.157,VALID,0,VALID,98.2721,VALID,0,VALID,20.7431,VALID,94,VALID,0.370271,
2002-03-01, 01:28:00,VALID,917.145,VALID,0,VALID,98.2899,VALID,0.0169808,VALID,20.7305,VALID,77,VALID,0.518945,
2002-03-01, 01:29:00,VALID,917.122,VALID,0,VALID,98.3039,VALID,0.0169808,VALID,20.7202,VALID,69,VALID,0.372738,
2002-03-01, 01:30:00,VALID,917.099,VALID,0,VALID,98.309,VALID,0.0169808,VALID,20.7175,VALID,67,VALID,0.280428,
2002-03-01, 01:31:00,VALID,917.081,VALID,0,VALID,98.3128,VALID,0.0169808,VALID,20.6974,VALID,67,VALID,0.0326891,
2002-03-01, 01:32:00,VALID,917.05,VALID,0,VALID,98.3167,VALID,0,VALID,20.6912,VALID,67,VALID,0.000195313,
2002-03-01, 01:33:00,VALID,917.035,VALID,0,VALID,98.3344,VALID,0.0169808,VALID,20.6777,VALID,67,VALID,0.000822368,
2002-03-01, 01:34:00,VALID,917.017,VALID,0,VALID,98.323,VALID,0.0679233,VALID,20.6782,VALID,78,VALID,0.19992,
2002-03-01, 01:35:00,VALID,917.01,VALID,0,VALID,98.3268,VALID,0.0169808,VALID,20.6583,VALID,144,VALID,0.549753,
2002-03-01, 01:36:00,VALID,917.013,VALID,0,VALID,98.3624,VALID,0.0679233,VALID,20.6653,VALID,162,VALID,0.42793,
2002-03-01, 01:37:00,VALID,917.005,VALID,0,VALID,98.3802,VALID,0.0849042,VALID,20.6782,VALID,160,VALID,0.310444,
2002-03-01, 01:38:00,VALID,917.026,VALID,0,VALID,98.3777,VALID,0.0509425,VALID,20.6785,VALID,158,VALID,0.0339227,
2002-03-01, 01:39:00,VALID,917.031,VALID,0,VALID,98.3764,VALID,0.0339617,VALID,20.685,VALID,158,VALID,0,
2002-03-01, 01:40:00,VALID,917.048,VALID,0,VALID,98.3281,VALID,0,VALID,20.6559,VALID,158,VALID,0,
2002-03-01, 01:41:00,VALID,917.045,VALID,0,VALID,98.3256,VALID,-0.0169808,VALID,20.6432,VALID,158,VALID,0,
2002-03-01, 01:42:00,VALID,917.035,VALID,0,VALID,98.3116,VALID,-0.0169808,VALID,20.6004,VALID,158,VALID,0,
2002-03-01, 01:43:00,VALID,917.004,VALID,0,VALID,98.3332,VALID,-0.0509425,VALID,20.5915,VALID,158,VALID,0,
2002-03-01, 01:44:00,VALID,916.976,VALID,0,VALID,98.3701,VALID,-0.0169808,VALID,20.5953,VALID,158,VALID,0,
2002-03-01, 01:45:00,VALID,916.955,VALID,0,VALID,98.384,VALID,0,VALID,20.5913,VALID,158,VALID,0,
2002-03-01, 01:46:00,VALID,916.932,VALID,0,VALID,98.3968,VALID,0.0169808,VALID,20.595,VALID,158,VALID,0.105263,
2002-03-01, 01:47:00,VALID,916.92,VALID,0,VALID,98.3929,VALID,-0.0169808,VALID,20.5983,VALID,208,VALID,0.293997,
2002-03-01, 01:48:00,VALID,916.895,VALID,0,VALID,98.4069,VALID,0,VALID,20.5915,VALID,217,VALID,0.412695,
2002-03-01, 01:49:00,VALID,916.88,VALID,0,VALID,98.4591,VALID,0,VALID,20.6209,VALID,208,VALID,0.33162,
2002-03-01, 01:50:00,VALID,916.859,VALID,0,VALID,98.4959,VALID,0,VALID,20.6462,VALID,221,VALID,0.441707,
2002-03-01, 01:51:00,VALID,916.846,VALID,0,VALID,98.5061,VALID,0,VALID,20.6656,VALID,203,VALID,0.612048,
2002-03-01, 01:52:00,VALID,916.832,VALID,0,VALID,98.4972,VALID,-0.0169808,VALID,20.679,VALID,221,VALID,0.345117,
2002-03-01, 01:53:00,VALID,916.821,VALID,0,VALID,98.4909,VALID,-0.0169808,VALID,20.6887,VALID,228,VALID,0.259046,
2002-03-01, 01:54:00,VALID,916.82,VALID,0,VALID,98.4883,VALID,-0.0679233,VALID,20.689,VALID,229,VALID,0.309416,
2002-03-01, 01:55:00,VALID,916.813,VALID,0,VALID,98.4794,VALID,0,VALID,20.6696,VALID,229,VALID,0.287007,
2002-03-01, 01:56:00,VALID,916.824,VALID,0,VALID,98.482,VALID,0,VALID,20.6559,VALID,250,VALID,0.426758,
2002-03-01, 01:57:00,VALID,916.826,VALID,0,VALID,98.4896,VALID,-0.0339617,VALID,20.6629,VALID,243,VALID,0.36472,
2002-03-01, 01:58:00,VALID,916.838,VALID,0,VALID,98.5074,VALID,-0.0169808,VALID,20.6755,VALID,238,VALID,0.166066,
2002-03-01, 01:59:00,VALID,916.849,VALID,0,VALID,98.5341,VALID,-0.0339617,VALID,20.6947,VALID,253,VALID,0.329359,
2002-03-01, 02:00:00,VALID,916.862,VALID,0,VALID,98.5506,VALID,0,VALID,20.7307,VALID,255,VALID,0.153711,
2002-03-01, 02:01:00,VALID,916.879,VALID,0,VALID,98.5481,VALID,-0.0339617,VALID,20.7539,VALID,272,VALID,0.0275493,
2002-03-01, 02:02:00,VALID,916.891,VALID,0,VALID,98.5583,VALID,-0.0339617,VALID,20.7501,VALID,351,VALID,0.0378289,
2002-03-01, 02:03:00,VALID,916.903,VALID,0,VALID,98.557,VALID,-0.0339617,VALID,20.7598,VALID,1,VALID,0.38528,
2002-03-01, 02:04:00,VALID,916.884,VALID,0,VALID,98.5392,VALID,-0.0169808,VALID,20.7566,VALID,11,VALID,0.324023,
2002-03-01, 02:05:00,VALID,916.881,VALID,0,VALID,98.4972,VALID,0,VALID,20.7337,VALID,11,VALID,0.179482,
2002-03-01, 02:06:00,VALID,916.855,VALID,0,VALID,98.4616,VALID,-0.0169808,VALID,20.7049,VALID,11,VALID,0.195913,
2002-03-01, 02:07:00,VALID,916.844,VALID,0,VALID,98.4616,VALID,-0.0169808,VALID,20.6817,VALID,11,VALID,0.214638,
2002-03-01, 02:08:00,VALID,916.825,VALID,0,VALID,98.4845,VALID,-0.0339617,VALID,20.6855,VALID,11,VALID,0.252344,
2002-03-01, 02:09:00,VALID,916.799,VALID,0,VALID,98.4718,VALID,-0.0339617,VALID,20.6887,VALID,14,VALID,0.311678,
2002-03-01, 02:10:00,VALID,916.8,VALID,0,VALID,98.4832,VALID,-0.0169808,VALID,20.6823,VALID,30,VALID,0.394326,
2002-03-01, 02:11:00,VALID,916.797,VALID,0,VALID,98.4756,VALID,0,VALID,20.6691,VALID,40,VALID,0.52097,
2002-03-01, 02:12:00,VALID,916.769,VALID,0,VALID,98.4642,VALID,0.0169808,VALID,20.6693,VALID,41,VALID,0.600781,
2002-03-01, 02:13:00,VALID,916.749,VALID,0,VALID,98.4616,VALID,0,VALID,20.6726,VALID,36,VALID,0.587582,
2002-03-01, 02:14:00,VALID,916.715,VALID,0,VALID,98.4692,VALID,-0.0339617,VALID,20.6761,VALID,37,VALID,0.732171,
2002-03-01, 02:15:00,VALID,916.674,VALID,0,VALID,98.4705,VALID,-0.0339617,VALID,20.6855,VALID,39,VALID,0.750617,
2002-03-01, 02:16:00,VALID,916.628,VALID,0,VALID,98.4629,VALID,-0.0339617,VALID,20.6728,VALID,45,VALID,0.850586,
2002-03-01, 02:17:00,VALID,916.582,VALID,0,VALID,98.4591,VALID,-0.0509425,VALID,20.6857,VALID,46,VALID,1.19593,
2002-03-01, 02:18:00,VALID,916.555,VALID,0,VALID,98.4642,VALID,-0.0679233,VALID,20.6857,VALID,41,VALID,1.16694,
2002-03-01, 02:19:00,VALID,916.521,VALID,0,VALID,98.4324,VALID,-0.0339617,VALID,20.6594,VALID,28,VALID,1.3014,
2002-03-01, 02:20:00,VALID,916.492,VALID,0,VALID,98.4502,VALID,-0.0339617,VALID,20.6629,VALID,26,VALID,1.33789,
2002-03-01, 02:21:00,VALID,916.465,VALID,0,VALID,98.4387,VALID,-0.0169808,VALID,20.6532,VALID,24,VALID,1.19305,
2002-03-01, 02:22:00,VALID,916.44,VALID,0,VALID,98.454,VALID,-0.0509425,VALID,20.6596,VALID,13,VALID,1.11058,
2002-03-01, 02:23:00,VALID,916.41,VALID,0,VALID,98.4718,VALID,-0.0509425,VALID,20.6634,VALID,16,VALID,1.09437,
2002-03-01, 02:24:00,VALID,916.398,VALID,0,VALID,98.4769,VALID,-0.0169808,VALID,20.6631,VALID,10,VALID,0.97832,
2002-03-01, 02:25:00,VALID,916.383,VALID,0,VALID,98.4642,VALID,-0.0679233,VALID,20.647,VALID,22,VALID,1.03865,
2002-03-01, 02:26:00,VALID,916.378,VALID,0,VALID,98.4514,VALID,-0.0849042,VALID,20.6211,VALID,29,VALID,0.899877,
2002-03-01, 02:27:00,VALID,916.384,VALID,0,VALID,98.4578,VALID,-0.0679233,VALID,20.6249,VALID,44,VALID,0.941406,
2002-03-01, 02:28:00,VALID,916.38,VALID,0,VALID,98.4629,VALID,-0.0339617,VALID,20.6149,VALID,36,VALID,0.9,
2002-03-01, 02:29:00,VALID,916.371,VALID,0,VALID,98.4705,VALID,-0.0339617,VALID,20.6017,VALID,42,VALID,0.768092,
2002-03-01, 02:30:00,VALID,916.363,VALID,0,VALID,98.4527,VALID,-0.0679233,VALID,20.6058,VALID,40,VALID,0.775441,
2002-03-01, 02:31:00,VALID,916.354,VALID,0,VALID,98.482,VALID,-0.0509425,VALID,20.5953,VALID,26,VALID,0.717311,
2002-03-01, 02:32:00,VALID,916.342,VALID,0,VALID,98.4743,VALID,-0.0339617,VALID,20.5791,VALID,33,VALID,0.786523,
2002-03-01, 02:33:00,VALID,916.33,VALID,0,VALID,98.4832,VALID,-0.0849042,VALID,20.5831,VALID,50,VALID,0.873766,
2002-03-01, 02:34:00,VALID,916.316,VALID,0,VALID,98.5087,VALID,-0.0339617,VALID,20.5896,VALID,59,VALID,1.17475,
2002-03-01, 02:35:00,VALID,916.302,VALID,0,VALID,98.5125,VALID,-0.0509425,VALID,20.5791,VALID,48,VALID,1.03372,
2002-03-01, 02:36:00,VALID,916.291,VALID,0,VALID,98.5137,VALID,-0.0509425,VALID,20.5856,VALID,54,VALID,1.29316,
2002-03-01, 02:37:00,VALID,916.276,VALID,0,VALID,98.529,VALID,-0.0169808,VALID,20.5759,VALID,44,VALID,1.21135,
2002-03-01, 02:38:00,VALID,916.284,VALID,0,VALID,98.5265,VALID,-0.0169808,VALID,20.5595,VALID,35,VALID,1.17708,
2002-03-01, 02:39:00,VALID,916.294,VALID,0,VALID,98.5417,VALID,0,VALID,20.5595,VALID,38,VALID,0.866776,
2002-03-01, 02:40:00,VALID,916.304,VALID,0,VALID,98.5481,VALID,-0.0339617,VALID,20.5595,VALID,41,VALID,0.481641,
2002-03-01, 02:41:00,VALID,916.337,VALID,0,VALID,98.571,VALID,-0.0169808,VALID,20.563,VALID,34,VALID,0.171464,
2002-03-01, 02:42:00,VALID,916.355,VALID,0,VALID,98.5697,VALID,-0.0169808,VALID,20.5627,VALID,34,VALID,0.0832648,
2002-03-01, 02:43:00,VALID,916.381,VALID,0,VALID,98.5811,VALID,-0.0339617,VALID,20.5665,VALID,59,VALID,0.305304,
2002-03-01, 02:44:00,VALID,916.4,VALID,0,VALID,98.5926,VALID,-0.0339617,VALID,20.5727,VALID,80,VALID,0.184375,
2002-03-01, 02:45:00,VALID,916.43,VALID,0,VALID,98.5951,VALID,-0.0509425,VALID,20.5727,VALID,108,VALID,0.273232,
2002-03-01, 02:46:00,VALID,916.452,VALID,0,VALID,98.6002,VALID,0,VALID,20.5791,VALID,149,VALID,0.584535,
2002-03-01, 02:47:00,VALID,916.476,VALID,0,VALID,98.6002,VALID,-0.0169808,VALID,20.5694,VALID,165,VALID,0.642064,
2002-03-01, 02:48:00,VALID,916.502,VALID,0,VALID,98.6231,VALID,0,VALID,20.5824,VALID,162,VALID,0.664648,
2002-03-01, 02:49:00,VALID,916.517,VALID,0,VALID,98.6422,VALID,-0.0509425,VALID,20.5891,VALID,161,VALID,0.463816,
2002-03-01, 02:50:00,VALID,916.52,VALID,0,VALID,98.6473,VALID,-0.0679233,VALID,20.6017,VALID,162,VALID,0.322985,
2002-03-01, 02:51:00,VALID,916.531,VALID,0,VALID,98.6587,VALID,-0.0509425,VALID,20.6381,VALID,162,VALID,0.379729,
2002-03-01, 02:52:00,VALID,916.525,VALID,0,VALID,98.6714,VALID,-0.0169808,VALID,20.6472,VALID,162,VALID,0.225781,
2002-03-01, 02:53:00,VALID,916.53,VALID,0,VALID,98.6651,VALID,0,VALID,20.6405,VALID,162,VALID,0.0970395,
2002-03-01, 02:54:00,VALID,916.52,VALID,0,VALID,98.6562,VALID,-0.0509425,VALID,20.6502,VALID,162,VALID,0,
2002-03-01, 02:55:00,VALID,916.528,VALID,0,VALID,98.674,VALID,-0.0169808,VALID,20.6698,VALID,162,VALID,0,
2002-03-01, 02:56:00,VALID,916.53,VALID,0,VALID,98.6727,VALID,-0.0509425,VALID,20.6631,VALID,155,VALID,0.00488281,
2002-03-01, 02:57:00,VALID,916.536,VALID,0,VALID,98.646,VALID,-0.0509425,VALID,20.6529,VALID,144,VALID,0.190789,
2002-03-01, 02:58:00,VALID,916.558,VALID,0,VALID,98.6384,VALID,0,VALID,20.647,VALID,115,VALID,0.342311,
2002-03-01, 02:59:00,VALID,916.56,VALID,0,VALID,98.6066,VALID,-0.0339617,VALID,20.6316,VALID,108,VALID,0.395148,
2002-03-01, 03:00:00,VALID,916.56,VALID,0,VALID,98.5939,VALID,-0.0509425,VALID,20.6052,VALID,108,VALID,0.345117,
2002-03-01, 03:01:00,VALID,916.551,VALID,0,VALID,98.6078,VALID,-0.0509425,VALID,20.5958,VALID,145,VALID,0.52241,
2002-03-01, 03:02:00,VALID,916.54,VALID,0,VALID,98.6218,VALID,-0.0509425,VALID,20.5821,VALID,154,VALID,0.669271,
2002-03-01, 03:03:00,VALID,916.529,VALID,0,VALID,98.6536,VALID,-0.0509425,VALID,20.6015,VALID,150,VALID,0.543586,
2002-03-01, 03:04:00,VALID,916.513,VALID,0,VALID,98.6562,VALID,-0.0339617,VALID,20.6176,VALID,157,VALID,0.445898,
2002-03-01, 03:05:00,VALID,916.498,VALID,0,VALID,98.6587,VALID,-0.0509425,VALID,20.6313,VALID,157,VALID,0.409745,
2002-03-01, 03:06:00,VALID,916.466,VALID,0,VALID,98.6625,VALID,0,VALID,20.6378,VALID,159,VALID,0.384868,
2002-03-01, 03:07:00,VALID,916.462,VALID,0,VALID,98.6613,VALID,0,VALID,20.6306,VALID,159,VALID,0.497533,
2002-03-01, 03:08:00,VALID,916.438,VALID,0,VALID,98.6651,VALID,-0.0339617,VALID,20.6378,VALID,160,VALID,0.370703,
2002-03-01, 03:09:00,VALID,916.443,VALID,0,VALID,98.6613,VALID,-0.0339617,VALID,20.637,VALID,160,VALID,0.299753,
2002-03-01, 03:10:00,VALID,916.433,VALID,0,VALID,98.66,VALID,0.101885,VALID,20.6457,VALID,154,VALID,0.407452,
2002-03-01, 03:11:00,VALID,916.423,VALID,0,VALID,98.6562,VALID,0.0509425,VALID,20.6395,VALID,122,VALID,0.335732,
2002-03-01, 03:12:00,VALID,916.439,VALID,0,VALID,98.6447,VALID,0.0679233,VALID,20.6258,VALID,94,VALID,0.529688,
2002-03-01, 03:13:00,VALID,916.446,VALID,0,VALID,98.6473,VALID,0.0509425,VALID,20.6198,VALID,66,VALID,0.563939,
2002-03-01, 03:14:00,VALID,916.454,VALID,0,VALID,98.6384,VALID,0.0849042,VALID,20.6064,VALID,62,VALID,0.644531,
2002-03-01, 03:15:00,VALID,916.445,VALID,0,VALID,98.6282,VALID,0.0679233,VALID,20.5937,VALID,67,VALID,0.722245,
2002-03-01, 03:16:00,VALID,916.452,VALID,0,VALID,98.6396,VALID,0.0509425,VALID,20.5875,VALID,77,VALID,0.761523,
2002-03-01, 03:17:00,VALID,916.451,VALID,0,VALID,98.6346,VALID,0.0849042,VALID,20.5942,VALID,76,VALID,0.60259,
2002-03-01, 03:18:00,VALID,916.458,VALID,0,VALID,98.6396,VALID,0.0679233,VALID,20.5776,VALID,77,VALID,0.570713,
2002-03-01, 03:19:00,VALID,916.466,VALID,0,VALID,98.6269,VALID,0.0509425,VALID,20.5649,VALID,77,VALID,0.419408,
2002-03-01, 03:20:00,VALID,916.468,VALID,0,VALID,98.6384,VALID,0.0679233,VALID,20.5681,VALID,77,VALID,0.178906,
2002-03-01, 03:21:00,VALID,916.476,VALID,0,VALID,98.6473,VALID,0.0849042,VALID,20.5617,VALID,77,VALID,0,
2002-03-01, 03:22:00,VALID,916.487,VALID,0,VALID,98.6435,VALID,0.0509425,VALID,20.5721,VALID,77,VALID,0,
2002-03-01, 03:23:00,VALID,916.482,VALID,0,VALID,98.6562,VALID,0.0339617,VALID,20.5584,VALID,77,VALID,0,
2002-03-01, 03:24:00,VALID,916.476,VALID,0,VALID,98.6651,VALID,0.0169808,VALID,20.5617,VALID,77,VALID,0,
2002-03-01, 03:25:00,VALID,916.461,VALID,0,VALID,98.6714,VALID,-0.0339617,VALID,20.5756,VALID,77,VALID,0,
2002-03-01, 03:26:00,VALID,916.449,VALID,0,VALID,98.6549,VALID,-0.0169808,VALID,20.5759,VALID,77,VALID,0,
2002-03-01, 03:27:00,VALID,916.444,VALID,0,VALID,98.6549,VALID,-0.0169808,VALID,20.5789,VALID,77,VALID,0.0602385,
2002-03-01, 03:28:00,VALID,916.44,VALID,0,VALID,98.6549,VALID,0,VALID,20.5789,VALID,77,VALID,0.0306641,
2002-03-01, 03:29:00,VALID,916.441,VALID,0,VALID,98.6473,VALID,0,VALID,20.5756,VALID,77,VALID,0.00452303,
2002-03-01, 03:30:00,VALID,916.439,VALID,0,VALID,98.6384,VALID,-0.0169808,VALID,20.5694,VALID,77,VALID,0.0715461,
2002-03-01, 03:31:00,VALID,916.434,VALID,0,VALID,98.6396,VALID,-0.0339617,VALID,20.556,VALID,77,VALID,0.0104852,
2002-03-01, 03:32:00,VALID,916.416,VALID,0,VALID,98.6231,VALID,0,VALID,20.5535,VALID,77,VALID,0.0373047,
2002-03-01, 03:33:00,VALID,916.406,VALID,0,VALID,98.6193,VALID,0,VALID,20.5401,VALID,81,VALID,0.347245,
2002-03-01, 03:34:00,VALID,916.388,VALID,0,VALID,98.6167,VALID,0,VALID,20.5336,VALID,90,VALID,0.296875,